[[{"header":{"parameterUnit":"m.s-1","parameterCategory":2,"la1":30.2991,"la2":30.254,"lo1":-89.0895,"lo2":-89.0444,"dy":0.0017,"dx":0.0017,"nx":28,"ny":28,"refTime":"2023-10-29T03:00:00:Z","depth":"0","parameterNumber":2,"parameterNumberName":"U-component_of_CURRENTS"},"data":[0,0,0,0,0,0,0,0,0,0,0,0,0,0,0,0,0,0,0,0,0,0,0,0,0,0,0,0,0,0,0,0,0,0,0,0,0,0,0,0,0,0,0,0,0,0,0,0,0,0,0,0,0,0,0,0,0,0,-0.2905,-0.2905,0,-0.2917,-0.2917,-0.2917,-0.2885,-0.2884,-0.2882,-0.2881,-0.2812,-0.2811,-0.2811,0,0,0,0,0,0,0,0,0,0,0,0,0,-0.2856,-0.2857,-0.2905,-0.2905,-0.2905,-0.2917,-0.2917,-0.2918,-0.2885,-0.2884,-0.2882,-0.288,-0.2812,-0.2811,-0.281,0,0,0,0,0,0,0,0,0,0,0,0,0,-0.2877,-0.2858,-0.2905,-0.2888,-0.2886,-0.2916,-0.2917,-0.2918,-0.2886,-0.2884,-0.2882,-0.288,-0.2812,-0.2811,-0.281,-0.2844,0,0,-0.2808,-0.2807,0,0,0,0,0,0,0,0,-0.2875,-0.2879,-0.289,-0.2889,-0.2887,-0.2894,-0.2874,-0.2888,-0.2886,-0.2889,-0.2881,-0.2879,-0.2831,-0.2829,-0.2841,-0.2841,-0.2838,-0.2807,-0.2807,-0.2806,-0.2806,0,0,0,0,0,0,0,-0.2874,-0.2878,-0.2913,-0.289,-0.2888,-0.2879,-0.288,-0.2877,-0.2872,-0.2889,-0.2886,-0.2882,-0.283,-0.2842,-0.2839,-0.2837,-0.2807,-0.2807,-0.2806,-0.2806,-0.2867,-0.2869,0,0,0,0,0,0,-0.2868,-0.2877,-0.2913,-0.2913,-0.2872,-0.2881,-0.2883,-0.2897,-0.2874,-0.2868,-0.2884,-0.2881,-0.2845,-0.284,-0.2836,-0.2891,-0.2806,-0.2806,-0.2805,-0.2864,-0.2867,-0.2869,0,0,0,0,0,0,-0.2868,-0.2872,-0.2912,-0.2891,-0.2895,-0.2884,-0.29,-0.2898,-0.2901,-0.287,-0.2863,-0.2887,-0.2843,-0.2837,-0.2837,-0.2886,-0.2805,-0.2804,-0.2862,-0.2865,-0.2868,-0.2989,0,0,0,0,0,0,-0.2867,-0.2873,-0.2883,-0.2892,-0.2896,-0.2955,-0.2902,-0.29,-0.2901,-0.2897,-0.2871,-0.2864,-0.2841,-0.2839,-0.2836,-0.2884,-0.2804,-0.2859,-0.2863,-0.2867,-0.2982,-0.2996,-0.3007,0,0,0,0,0,-0.2865,-0.2897,-0.2884,-0.2887,-0.2911,-0.2957,-0.2961,-0.2946,-0.2903,-0.2935,-0.2899,-0.2864,-0.2863,-0.284,-0.2836,-0.2885,-0.2857,-0.2862,-0.2867,-0.2976,-0.2993,-0.3007,0,0,0,0,0,0,-0.2875,-0.2896,-0.2882,-0.2916,-0.2941,-0.2951,-0.2966,-0.295,-0.295,-0.2926,-0.2886,-0.2879,-0.2902,-0.2875,-0.285,-0.2915,-0.2857,-0.2862,-0.2942,-0.2957,-0.297,-0.2948,-0.2803,0,0,0,0,0,-0.2883,-0.291,-0.2931,-0.2953,-0.2968,-0.2964,-0.2974,-0.2968,-0.2964,-0.2961,-0.2945,-0.2923,-0.2926,-0.2922,-0.2923,-0.2952,-0.2877,-0.2983,-0.2995,-0.3006,-0.2987,-0.2924,-0.2928,-0.2885,-0.2885,-0.2885,0,0,-0.2877,-0.2901,-0.2906,-0.2956,-0.2964,-0.3012,-0.2967,-0.2992,-0.3025,-0.2953,-0.2986,-0.2967,-0.2943,-0.2983,-0.2991,-0.2961,-0.2982,-0.3013,-0.3022,-0.2996,-0.2929,-0.2933,-0.2936,-0.2889,-0.2888,-0.2888,0,0,-0.2906,-0.2917,-0.2955,-0.2992,-0.3023,-0.3039,-0.3048,-0.307,-0.3075,-0.311,-0.3063,-0.3066,-0.3078,-0.3073,-0.3068,-0.3148,-0.3052,-0.3157,-0.3202,-0.3143,-0.3145,-0.3146,-0.3058,-0.305,-0.3163,-0.3163,-0.3163,0,-0.2899,-0.294,-0.2974,-0.3034,-0.3044,-0.3054,-0.309,-0.313,-0.3148,-0.3136,-0.3135,-0.3125,-0.3124,-0.3134,-0.3178,-0.3178,-0.3104,-0.3148,-0.3157,-0.3156,-0.3154,-0.3064,-0.3053,-0.3169,-0.3169,-0.3168,-0.3167,0,-0.2956,-0.2991,-0.3019,-0.3091,-0.3135,-0.3159,-0.3214,-0.3248,-0.3244,-0.3251,-0.3261,-0.3261,-0.3235,-0.3269,-0.3255,-0.3257,-0.3195,-0.318,-0.3112,-0.3165,-0.3068,-0.3054,-0.3178,-0.3176,-0.3174,-0.3173,0,0,-0.2884,-0.3027,-0.3022,-0.3034,-0.3144,-0.3157,-0.3255,-0.3291,-0.3266,-0.334,-0.3299,-0.3378,-0.3339,-0.333,-0.3314,-0.3292,-0.3253,-0.3239,-0.3233,-0.3141,-0.3082,-0.3024,-0.3002,-0.3227,-0.3226,-0.3225,-0.3018,0,-0.2884,-0.2969,-0.3061,-0.3103,-0.3121,-0.3194,-0.3255,-0.3302,-0.3319,-0.3302,-0.333,-0.3294,-0.3376,-0.3323,-0.3341,-0.3254,-0.3222,-0.3307,-0.3052,-0.3044,-0.2977,-0.2987,-0.2871,-0.2675,-0.3004,-0.3002,-0.3,0,-0.2857,-0.2913,-0.2968,-0.303,-0.3043,-0.3092,-0.31,-0.3162,-0.3202,-0.3203,-0.3226,-0.3218,-0.3233,-0.3257,-0.3199,-0.3241,-0.3175,-0.3122,-0.3112,-0.2998,-0.2961,-0.2675,-0.2637,-0.2634,-0.2978,-0.298,-0.2981,0,-0.2685,-0.2805,-0.2823,-0.2855,-0.2977,-0.299,-0.3036,-0.3097,-0.3104,-0.3101,-0.3069,-0.3105,-0.3061,-0.3046,-0.3041,-0.308,-0.2921,-0.2948,-0.2832,-0.2825,-0.2644,-0.2625,-0.2557,-0.2864,-0.2865,-0.2866,-0.2866,0,-0.2595,-0.259,-0.2729,-0.2729,-0.2709,-0.2837,-0.2807,-0.286,-0.2901,-0.2881,-0.2977,-0.2945,-0.3,-0.2959,-0.2964,-0.2865,-0.2867,-0.2817,-0.2768,-0.2686,-0.2674,-0.2596,-0.2625,-0.2858,-0.2859,-0.2861,-0.2862,0,-0.2404,-0.2508,-0.2513,-0.2616,-0.2632,-0.2605,-0.2687,-0.2663,-0.2726,-0.2698,-0.269,-0.2773,-0.2736,-0.2776,-0.2694,-0.2718,-0.2582,-0.2591,-0.249,-0.2435,-0.2354,-0.2394,-0.2209,-0.2154,-0.2414,-0.2412,-0.2409,0,-0.2323,-0.2309,-0.2386,-0.2378,-0.2423,-0.2425,-0.243,-0.2539,-0.2539,-0.26,-0.2565,-0.2547,-0.254,-0.2441,-0.2432,-0.2368,-0.2421,-0.2225,-0.2309,-0.2315,-0.2322,-0.2354,-0.2325,-0.2103,-0.2099,-0.2095,-0.2092,0,-0.2149,-0.2177,-0.2193,-0.2176,-0.2176,-0.2188,-0.2213,-0.22,-0.2325,-0.2321,-0.2322,-0.2315,-0.2272,-0.2192,-0.2137,-0.2108,-0.2174,-0.2146,-0.2162,-0.208,-0.209,-0.2024,-0.2273,-0.2059,-0.2062,-0.2064,-0.2066,-0.2068,-0.1997,-0.1963,-0.1981,-0.1953,-0.196,-0.1947,-0.1899,-0.1963,-0.1955,-0.1964,-0.2057,-0.2024,-0.2025,-0.1947,-0.1918,-0.1828,-0.1904,-0.1808,-0.1849,-0.1876,-0.1851,-0.2031,-0.1778,-0.1779,-0.1781,-0.1782,-0.1783,0,-0.1802,-0.1792,-0.1757,-0.1733,-0.1679,-0.175,-0.1747,-0.1698,-0.1655,-0.1725,-0.1721,-0.1726,-0.1654,-0.1689,-0.1621,-0.1563,-0.155,-0.1549,-0.157,-0.1552,-0.1686,-0.1707,-0.1414,-0.1414,-0.1414,-0.1414,-0.1414,-0.1414,-0.1696,-0.1611,-0.1608,-0.1468,-0.1449,-0.1344,-0.1316,-0.1288,-0.1307,-0.1286,-0.1323,-0.14,-0.1453,-0.1574,-0.1509,-0.1446,-0.1447,-0.1373,-0.1439,-0.1568,-0.1597,-0.1624,-0.1652,-0.1352,-0.1352,-0.1237,-0.1236,-0.1235]},{"header":{"parameterUnit":"m.s-1","parameterCategory":2,"la1":30.2991,"la2":30.254,"lo1":-89.0895,"lo2":-89.0444,"dy":0.0017,"dx":0.0017,"nx":28,"ny":28,"refTime":"2023-10-29T03:00:00:Z","depth":"0","parameterNumber":3,"parameterNumberName":"V-component_of_CURRENTS"},"data":[0,0,0,0,0,0,0,0,0,0,0,0,0,0,0,0,0,0,0,0,0,0,0,0,0,0,0,0,0,0,0,0,0,0,0,0,0,0,0,0,0,0,0,0,0,0,0,0,0,0,0,0,0,0,0,0,0,0,-0.0164,-0.0163,0,-0.0057,-0.0056,-0.0055,-0.0005,-0.0005,-0.0005,-0.0005,0.0149,0.0153,0.0157,0,0,0,0,0,0,0,0,0,0,0,0,0,-0.0246,-0.0245,-0.0164,-0.0163,-0.0162,-0.0057,-0.0056,-0.0054,-0.0005,-0.0005,-0.0005,-0.0005,0.0148,0.0153,0.0158,0,0,0,0,0,0,0,0,0,0,0,0,0,-0.0181,-0.0245,-0.0164,-0.0125,-0.0121,-0.0058,-0.0056,-0.0054,-0.0005,-0.0005,-0.0005,-0.0005,0.0146,0.0152,0.0158,0.0204,0,0,0.0178,0.0181,0,0,0,0,0,0,0,0,-0.0185,-0.0178,-0.0132,-0.0128,-0.0123,-0.0046,-0.0028,0.0034,-0.0005,-0.0047,-0.0005,-0.0006,0.0088,0.0099,0.0121,0.0211,0.0218,0.0179,0.0183,0.0185,0.0187,0,0,0,0,0,0,0,-0.0189,-0.0182,-0.0121,-0.0131,-0.0125,-0.0086,-0.0078,-0.0016,0.0022,-0.0044,-0.004,-0.003,0.0091,0.0114,0.0125,0.022,0.0179,0.0184,0.0188,0.0191,0.035,0.0351,0,0,0,0,0,0,-0.0209,-0.0186,-0.0124,-0.0117,-0.0156,-0.0085,-0.0075,-0.0069,0.0021,0.0033,-0.003,-0.0028,0.0104,0.0117,0.013,0.0183,0.0185,0.0191,0.0195,0.035,0.035,0.0351,0,0,0,0,0,0,-0.0211,-0.0204,-0.0128,-0.015,-0.0138,-0.0084,-0.0077,-0.0067,-0.0046,0.003,0.0044,-0.0021,0.0104,0.0121,0.0179,0.019,0.0194,0.02,0.0349,0.035,0.0351,0.0293,0,0,0,0,0,0,-0.0214,-0.0206,-0.021,-0.0152,-0.0137,-0.0098,-0.0076,-0.0065,-0.004,-0.0037,0.0044,0.0058,0.0105,0.0169,0.0186,0.0199,0.0205,0.0349,0.035,0.035,0.0294,0.0291,0.0289,0,0,0,0,0,-0.0217,-0.0223,-0.0211,-0.0203,-0.0145,-0.0098,-0.0087,-0.0048,-0.004,-0.0031,0.0021,0.0055,0.0186,0.0175,0.0194,0.0209,0.0349,0.035,0.035,0.0295,0.0292,0.0289,0,0,0,0,0,0,-0.0259,-0.0216,-0.0203,-0.0195,-0.0154,-0.009,-0.008,-0.0052,-0.0004,-0.0005,0.0065,0.0083,0.0137,0.0181,0.0167,0.0256,0.0272,0.0276,0.0223,0.0221,0.0218,0.0195,0.021,0,0,0,0,0,-0.0272,-0.0268,-0.0214,-0.021,-0.0192,-0.0138,-0.0116,-0.0089,-0.0038,-0.0018,0.004,0.01,0.0157,0.0192,0.0248,0.0302,0.0332,0.0323,0.032,0.0317,0.0312,0.0355,0.0355,0.0354,0.0354,0.0354,0,0,-0.0287,-0.0265,-0.0262,-0.0219,-0.0186,-0.0164,-0.0125,-0.0097,-0.0075,-0.0007,0.0038,0.0093,0.0168,0.0223,0.0252,0.0261,0.0335,0.0318,0.0315,0.0311,0.0355,0.0355,0.0355,0.0354,0.0354,0.0354,0,0,-0.0323,-0.0296,-0.0308,-0.0276,-0.0233,-0.019,-0.0186,-0.0123,-0.0092,-0.0039,0.0011,0.0068,0.016,0.0214,0.0253,0.0272,0.0316,0.0291,0.0266,0.0308,0.0308,0.0308,0.0348,0.0353,0.0293,0.0293,0.0293,0,-0.0347,-0.0351,-0.0302,-0.0301,-0.028,-0.0207,-0.0207,-0.0156,-0.0082,-0.0055,-0.0035,0.0095,0.0157,0.0226,0.0231,0.0266,0.0292,0.027,0.0302,0.0303,0.0305,0.0346,0.0352,0.029,0.029,0.0291,0.0291,0,-0.0389,-0.0388,-0.0389,-0.0363,-0.033,-0.0316,-0.0242,-0.0203,-0.0154,-0.0101,-0.0026,0.0062,0.0135,0.0169,0.0209,0.0255,0.0271,0.0289,0.0304,0.0301,0.0345,0.0352,0.0286,0.0287,0.0288,0.0289,0,0,-0.0449,-0.0428,-0.0428,-0.0427,-0.0364,-0.0339,-0.0296,-0.0233,-0.0206,-0.012,-0.0081,0.0028,0.0073,0.012,0.0184,0.0228,0.0266,0.0256,0.026,0.0284,0.0353,0.0401,0.0413,0.0283,0.0284,0.0284,0.038,0,-0.0498,-0.0526,-0.0489,-0.049,-0.0491,-0.041,-0.0379,-0.0311,-0.0231,-0.0169,-0.0067,-0.0002,0.0058,0.0091,0.0146,0.0241,0.0281,0.0238,0.0363,0.0367,0.04,0.0422,0.0447,0.0537,0.0387,0.0388,0.0389,0,-0.0548,-0.056,-0.0589,-0.0562,-0.0554,-0.0538,-0.0467,-0.0424,-0.0313,-0.0255,-0.0164,-0.0082,0.0018,0.0055,0.021,0.0178,0.0252,0.0322,0.0328,0.0395,0.0427,0.0518,0.0556,0.0675,0.04,0.0399,0.0399,0,-0.0618,-0.0619,-0.0648,-0.0638,-0.0598,-0.0591,-0.0556,-0.046,-0.0413,-0.0303,-0.0262,-0.0133,-0.0058,0.0051,0.0213,0.0204,0.0375,0.0382,0.0494,0.0498,0.0558,0.0566,0.0716,0.0465,0.0465,0.0465,0.0464,0,-0.0678,-0.0694,-0.0687,-0.07,-0.0719,-0.0664,-0.0646,-0.0585,-0.0495,-0.0435,-0.0315,-0.0236,-0.0059,0.0072,0.0195,0.0382,0.0365,0.0496,0.053,0.054,0.0545,0.0682,0.0717,0.0468,0.0468,0.0467,0.0466,0,-0.0736,-0.0739,-0.0765,-0.0757,-0.0753,-0.076,-0.0704,-0.068,-0.0595,-0.051,-0.048,-0.0303,-0.012,0.0059,0.0261,0.0371,0.061,0.0589,0.0593,0.0625,0.0833,0.0863,0.103,0.1106,0.0726,0.0728,0.0729,0,-0.0767,-0.0794,-0.081,-0.0825,-0.0821,-0.0818,-0.0812,-0.0736,-0.0689,-0.0534,-0.0497,-0.0311,-0.0142,0.0174,0.0395,0.0622,0.07,0.0759,0.0749,0.086,0.0918,0.093,0.0983,0.0807,0.0809,0.0811,0.0812,0,-0.0813,-0.0822,-0.0844,-0.0879,-0.0891,-0.089,-0.0867,-0.0844,-0.0732,-0.0649,-0.0485,-0.0344,-0.0025,0.0278,0.0563,0.0688,0.0848,0.08,0.0919,0.1001,0.102,0.1105,0.0725,0.0827,0.0825,0.0824,0.0823,0.0823,-0.0833,-0.0864,-0.0891,-0.0915,-0.0936,-0.0934,-0.0916,-0.0867,-0.0787,-0.0621,-0.048,-0.0237,0.0177,0.0603,0.0749,0.1039,0.0994,0.1117,0.1146,0.115,0.1222,0.0875,0.1011,0.101,0.101,0.101,0.1009,0,-0.0842,-0.0875,-0.0912,-0.0943,-0.0962,-0.0959,-0.0924,-0.0874,-0.0772,-0.0605,-0.0417,0.0068,0.0467,0.0814,0.1231,0.1379,0.14,0.1442,0.1466,0.1506,0.1213,0.1215,0.1396,0.1396,0.1396,0.1396,0.1396,0.1395,-0.0847,-0.0882,-0.0902,-0.0937,-0.0959,-0.0945,-0.0915,-0.0835,-0.0705,-0.0415,-0.0139,0.0108,0.0611,0.1294,0.1666,0.1685,0.1808,0.1781,0.1861,0.1655,0.1626,0.1599,0.1612,0.1873,0.1874,0.2146,0.2148,0.215]}],[{"header":{"parameterUnit":"m.s-1","parameterCategory":2,"la1":30.2991,"la2":30.254,"lo1":-89.0895,"lo2":-89.0444,"dy":0.0017,"dx":0.0017,"nx":28,"ny":28,"refTime":"2023-10-29T03:00:00:Z","depth":"2","parameterNumber":2,"parameterNumberName":"U-component_of_CURRENTS"},"data":[0,0,0,0,0,0,0,0,0,0,0,0,0,0,0,0,0,0,0,0,0,0,0,0,0,0,0,0,0,0,0,0,0,0,0,0,0,0,0,0,0,0,0,0,0,0,0,0,0,0,0,0,0,0,0,0,0,0,-0.2295,-0.2295,0,-0.2282,-0.2282,-0.2281,-0.2271,-0.2271,-0.2271,-0.2271,-0.2272,-0.2272,-0.2272,0,0,0,0,0,0,0,0,0,0,0,0,0,-0.2281,-0.2281,-0.2295,-0.2295,-0.2295,-0.2282,-0.2282,-0.2281,-0.2271,-0.2271,-0.2271,-0.2271,-0.2272,-0.2272,-0.2272,0,0,0,0,0,0,0,0,0,0,0,0,0,-0.2277,-0.2281,-0.2295,-0.229,-0.229,-0.2282,-0.2282,-0.2281,-0.2271,-0.2271,-0.2271,-0.2271,-0.2272,-0.2272,-0.2272,-0.2267,0,0,-0.2272,-0.2272,0,0,0,0,0,0,0,0,-0.2277,-0.2277,-0.2291,-0.229,-0.229,-0.2281,-0.2277,-0.2278,-0.2271,-0.2275,-0.2271,-0.2271,-0.2278,-0.2277,-0.227,-0.2267,-0.2267,-0.2272,-0.2272,-0.2271,-0.2271,0,0,0,0,0,0,0,-0.2278,-0.2278,-0.2287,-0.2291,-0.2291,-0.2279,-0.2279,-0.2277,-0.2274,-0.2275,-0.2275,-0.2277,-0.2278,-0.2271,-0.227,-0.2267,-0.2272,-0.2272,-0.2271,-0.2271,-0.2288,-0.2288,0,0,0,0,0,0,-0.2286,-0.2278,-0.2287,-0.2287,-0.2287,-0.2279,-0.2279,-0.2281,-0.2273,-0.2273,-0.2277,-0.2277,-0.2271,-0.2271,-0.2271,-0.2345,-0.2271,-0.2271,-0.2271,-0.2287,-0.2288,-0.2288,0,0,0,0,0,0,-0.2286,-0.2287,-0.2288,-0.2284,-0.2284,-0.228,-0.2282,-0.2281,-0.229,-0.2276,-0.2275,-0.229,-0.2271,-0.2271,-0.2275,-0.2342,-0.2271,-0.2271,-0.2287,-0.2287,-0.2288,-0.2442,0,0,0,0,0,0,-0.2285,-0.2287,-0.2292,-0.2285,-0.2285,-0.2318,-0.2282,-0.2281,-0.2291,-0.2291,-0.2286,-0.2285,-0.2271,-0.2275,-0.2275,-0.234,-0.2271,-0.2286,-0.2287,-0.2288,-0.2436,-0.2448,-0.2458,0,0,0,0,0,-0.2285,-0.2298,-0.2292,-0.2293,-0.2291,-0.232,-0.232,-0.2315,-0.2292,-0.2318,-0.229,-0.2286,-0.2281,-0.2275,-0.2275,-0.2342,-0.2285,-0.2287,-0.2288,-0.2432,-0.2446,-0.2458,0,0,0,0,0,0,-0.2291,-0.2298,-0.2291,-0.2304,-0.2326,-0.232,-0.2333,-0.2325,-0.2321,-0.231,-0.2289,-0.2288,-0.2322,-0.2291,-0.2284,-0.2342,-0.2285,-0.2286,-0.2394,-0.2407,-0.2418,-0.2396,-0.2271,0,0,0,0,0,-0.2295,-0.2308,-0.2319,-0.2331,-0.2343,-0.2338,-0.2345,-0.2344,-0.2339,-0.2337,-0.2338,-0.2321,-0.2323,-0.2331,-0.2326,-0.2354,-0.229,-0.2392,-0.2403,-0.2413,-0.239,-0.236,-0.2367,-0.2292,-0.2292,-0.2292,0,0,-0.2297,-0.2305,-0.2309,-0.2334,-0.234,-0.2376,-0.2343,-0.2365,-0.2392,-0.2337,-0.2373,-0.2364,-0.2335,-0.2373,-0.2386,-0.236,-0.2398,-0.2414,-0.2424,-0.2394,-0.2362,-0.2369,-0.2376,-0.2293,-0.2293,-0.2293,0,0,-0.2315,-0.232,-0.2339,-0.237,-0.2394,-0.2404,-0.2419,-0.2434,-0.2439,-0.2474,-0.2435,-0.2448,-0.2469,-0.2457,-0.2451,-0.2507,-0.2457,-0.2524,-0.2572,-0.2546,-0.2552,-0.2557,-0.2484,-0.2481,-0.2532,-0.2533,-0.2533,0,-0.2314,-0.2334,-0.2353,-0.2392,-0.2406,-0.2425,-0.2452,-0.2479,-0.2496,-0.2495,-0.2509,-0.2511,-0.2507,-0.2516,-0.2546,-0.2539,-0.2491,-0.254,-0.2563,-0.2567,-0.2569,-0.2492,-0.2487,-0.254,-0.2539,-0.2538,-0.2538,0,-0.2352,-0.2373,-0.2393,-0.2444,-0.2478,-0.2503,-0.2545,-0.2578,-0.2595,-0.2615,-0.2643,-0.2633,-0.2622,-0.2653,-0.2626,-0.2644,-0.2594,-0.2587,-0.254,-0.2586,-0.2501,-0.2493,-0.2551,-0.2548,-0.2546,-0.2544,0,0,-0.2307,-0.2395,-0.2397,-0.2413,-0.2492,-0.2512,-0.2581,-0.262,-0.2625,-0.27,-0.2695,-0.2752,-0.2739,-0.2724,-0.2702,-0.2696,-0.2692,-0.2659,-0.2654,-0.26,-0.2599,-0.254,-0.2524,-0.2704,-0.2703,-0.2703,-0.2534,0,-0.231,-0.2369,-0.2419,-0.2471,-0.2493,-0.2545,-0.2596,-0.2646,-0.2681,-0.2698,-0.2723,-0.2721,-0.2771,-0.2745,-0.2768,-0.269,-0.2676,-0.2735,-0.2546,-0.2538,-0.2495,-0.2515,-0.2348,-0.2183,-0.2525,-0.2524,-0.2523,0,-0.23,-0.234,-0.2383,-0.2441,-0.2454,-0.2501,-0.2534,-0.2583,-0.2639,-0.2657,-0.2698,-0.2704,-0.271,-0.2729,-0.2683,-0.2721,-0.2669,-0.2627,-0.262,-0.2497,-0.2465,-0.2189,-0.2154,-0.2507,-0.2509,-0.251,-0.2511,0,-0.2208,-0.2293,-0.2312,-0.2341,-0.2437,-0.245,-0.2494,-0.2561,-0.257,-0.2601,-0.2599,-0.2641,-0.2611,-0.2608,-0.2584,-0.2616,-0.2501,-0.2523,-0.2417,-0.241,-0.219,-0.2165,-0.2471,-0.2471,-0.2471,-0.2472,-0.2472,0,-0.216,-0.2168,-0.2268,-0.228,-0.2284,-0.238,-0.2377,-0.2425,-0.247,-0.2471,-0.2555,-0.2534,-0.2582,-0.2551,-0.2542,-0.2453,-0.2473,-0.2403,-0.2368,-0.2238,-0.222,-0.2439,-0.2438,-0.2465,-0.2467,-0.2468,-0.2469,0,-0.2039,-0.2116,-0.213,-0.2219,-0.2238,-0.2235,-0.2297,-0.2295,-0.2361,-0.2348,-0.2351,-0.242,-0.2387,-0.2414,-0.2352,-0.2356,-0.2288,-0.2245,-0.2074,-0.2024,-0.2216,-0.2224,-0.2092,-0.2088,-0.2085,-0.2083,-0.2081,0,-0.1977,-0.1977,-0.2047,-0.2046,-0.2078,-0.21,-0.2108,-0.2207,-0.2211,-0.2274,-0.2248,-0.2243,-0.2221,-0.2136,-0.2114,-0.2048,-0.2161,-0.1862,-0.1913,-0.22,-0.2179,-0.2192,-0.2204,-0.1662,-0.1657,-0.1653,-0.1649,0,-0.184,-0.1867,-0.1883,-0.1883,-0.1891,-0.1904,-0.1935,-0.193,-0.2038,-0.2038,-0.2035,-0.2021,-0.198,-0.1861,-0.181,-0.1767,-0.1875,-0.1772,-0.2082,-0.1816,-0.1791,-0.1773,-0.1799,-0.1611,-0.1615,-0.1617,-0.1619,-0.1621,-0.1708,-0.1681,-0.1703,-0.1689,-0.1704,-0.1698,-0.1657,-0.1713,-0.1703,-0.1702,-0.1783,-0.1718,-0.1739,-0.1576,-0.1512,-0.1474,-0.1606,-0.1557,-0.1571,-0.159,-0.1602,-0.1577,-0.1355,-0.1357,-0.1359,-0.1361,-0.1362,0,-0.1533,-0.1529,-0.1506,-0.1494,-0.1452,-0.1523,-0.1523,-0.1475,-0.1423,-0.1462,-0.1443,-0.1308,-0.124,-0.128,-0.1156,-0.1149,-0.1151,-0.1115,-0.1121,-0.1158,-0.1191,-0.1187,-0.0827,-0.0826,-0.0824,-0.0823,0,0,-0.1438,-0.1366,-0.1365,-0.1249,-0.1242,-0.115,-0.1124,-0.1089,-0.1089,-0.1026,-0.1008,-0.1118,-0.1195,-0.0997,-0.0967,-0.0874,-0.1002,-0.0827,-0.1249,-0.1287,-0.1319,-0.143,-0.1463,0,0,0,0,0]},{"header":{"parameterUnit":"m.s-1","parameterCategory":2,"la1":30.2991,"la2":30.254,"lo1":-89.0895,"lo2":-89.0444,"dy":0.0017,"dx":0.0017,"nx":28,"ny":28,"refTime":"2023-10-29T03:00:00:Z","depth":"2","parameterNumber":3,"parameterNumberName":"V-component_of_CURRENTS"},"data":[0,0,0,0,0,0,0,0,0,0,0,0,0,0,0,0,0,0,0,0,0,0,0,0,0,0,0,0,0,0,0,0,0,0,0,0,0,0,0,0,0,0,0,0,0,0,0,0,0,0,0,0,0,0,0,0,0,0,-0.0205,-0.0204,0,-0.0137,-0.0136,-0.0135,-0.0106,-0.0106,-0.0106,-0.0106,0.0015,0.0018,0.0021,0,0,0,0,0,0,0,0,0,0,0,0,0,-0.0256,-0.0256,-0.0205,-0.0204,-0.0203,-0.0137,-0.0136,-0.0135,-0.0106,-0.0106,-0.0106,-0.0106,0.0014,0.0018,0.0022,0,0,0,0,0,0,0,0,0,0,0,0,0,-0.0216,-0.0255,-0.0205,-0.018,-0.0177,-0.0137,-0.0136,-0.0135,-0.0106,-0.0106,-0.0106,-0.0106,0.0013,0.0017,0.0022,0.0053,0,0,0.0037,0.0039,0,0,0,0,0,0,0,0,-0.0219,-0.0215,-0.0184,-0.0181,-0.0178,-0.0129,-0.011,-0.0069,-0.0106,-0.0133,-0.0106,-0.0106,-0.0028,-0.002,-0.0009,0.0059,0.0064,0.0038,0.0041,0.0043,0.0044,0,0,0,0,0,0,0,-0.0222,-0.0217,-0.0179,-0.0183,-0.0179,-0.0154,-0.0149,-0.0102,-0.0081,-0.0131,-0.0129,-0.012,-0.0026,-0.0013,-0.0005,0.0066,0.0037,0.0042,0.0045,0.0047,0.016,0.016,0,0,0,0,0,0,-0.0231,-0.022,-0.0181,-0.0177,-0.0198,-0.0153,-0.0147,-0.0145,-0.0082,-0.0073,-0.012,-0.0119,-0.0022,-0.0011,-0.0001,0.0043,0.0043,0.0047,0.005,0.016,0.016,0.016,0,0,0,0,0,0,-0.0233,-0.0229,-0.0184,-0.0196,-0.0188,-0.0152,-0.015,-0.0144,-0.0133,-0.0074,-0.0064,-0.0115,-0.0021,-0.0008,0.0034,0.0048,0.0049,0.0054,0.016,0.016,0.016,0.0128,0,0,0,0,0,0,-0.0235,-0.023,-0.0235,-0.0197,-0.0188,-0.0165,-0.015,-0.0143,-0.0127,-0.0124,-0.0066,-0.0055,-0.002,0.0027,0.0039,0.0054,0.0058,0.016,0.016,0.016,0.0129,0.0127,0.0126,0,0,0,0,0,-0.0237,-0.0244,-0.0236,-0.0231,-0.0195,-0.0165,-0.0159,-0.0133,-0.0127,-0.0123,-0.0086,-0.0057,0.0037,0.0031,0.0045,0.0062,0.016,0.016,0.016,0.013,0.0128,0.0126,0,0,0,0,0,0,-0.0267,-0.024,-0.0231,-0.0229,-0.0202,-0.016,-0.0155,-0.0136,-0.0105,-0.0105,-0.0053,-0.0039,0.0003,0.0034,0.0026,0.0093,0.0102,0.0105,0.0074,0.0073,0.0071,0.0056,0.0062,0,0,0,0,0,-0.0277,-0.0279,-0.0242,-0.0242,-0.023,-0.0193,-0.0179,-0.0162,-0.0127,-0.0115,-0.0072,-0.0028,0.0016,0.0043,0.0083,0.0124,0.0153,0.0142,0.0141,0.0139,0.0135,0.0189,0.0192,0.0161,0.0161,0.0161,0,0,-0.0288,-0.0275,-0.0274,-0.0249,-0.0227,-0.0215,-0.0186,-0.0169,-0.0155,-0.0104,-0.0074,-0.0032,0.0023,0.0065,0.0087,0.0094,0.0162,0.0139,0.0137,0.0135,0.0189,0.0192,0.0195,0.0161,0.0161,0.0161,0,0,-0.0317,-0.0299,-0.0313,-0.0293,-0.0266,-0.0235,-0.0232,-0.0191,-0.0169,-0.0133,-0.0094,-0.0048,0.0018,0.0061,0.0092,0.0105,0.0148,0.0118,0.0105,0.0157,0.016,0.0163,0.0199,0.0205,0.0121,0.0121,0.0121,0,-0.0334,-0.0344,-0.031,-0.0316,-0.0302,-0.0248,-0.0252,-0.0217,-0.0167,-0.0143,-0.013,-0.0028,0.0018,0.0078,0.0079,0.0103,0.0131,0.011,0.0155,0.0159,0.0162,0.0198,0.0206,0.012,0.012,0.012,0.012,0,-0.0373,-0.0377,-0.038,-0.0369,-0.0347,-0.0339,-0.0286,-0.0258,-0.0219,-0.0179,-0.0114,-0.0048,0.0012,0.0038,0.0065,0.0116,0.0126,0.0143,0.0159,0.0163,0.0201,0.021,0.0117,0.0118,0.0118,0.0119,0,0,-0.0418,-0.0411,-0.0413,-0.0416,-0.0375,-0.036,-0.0328,-0.0278,-0.0254,-0.0188,-0.0149,-0.0065,-0.0024,0.0012,0.0063,0.0111,0.016,0.0132,0.0136,0.0165,0.0264,0.0287,0.0299,0.0186,0.0187,0.0188,0.0278,0,-0.0459,-0.0492,-0.0465,-0.0473,-0.0479,-0.0416,-0.0395,-0.0341,-0.0275,-0.0221,-0.0132,-0.0077,-0.0033,-0.0003,0.0055,0.0136,0.0182,0.0134,0.0258,0.0261,0.028,0.031,0.0276,0.0354,0.0286,0.0288,0.0289,0,-0.0508,-0.0521,-0.055,-0.0533,-0.0528,-0.0519,-0.046,-0.0427,-0.0332,-0.0281,-0.0196,-0.0127,-0.0036,-0.0008,0.014,0.0106,0.0175,0.0238,0.0243,0.0282,0.0301,0.0341,0.0373,0.0303,0.0302,0.0301,0.03,0,-0.0568,-0.0574,-0.0599,-0.0595,-0.0568,-0.0562,-0.0533,-0.0453,-0.0414,-0.0313,-0.0273,-0.0153,-0.0088,0.0019,0.0154,0.0146,0.031,0.0317,0.0404,0.0406,0.0411,0.0411,0.041,0.041,0.041,0.041,0.041,0,-0.0622,-0.0638,-0.0634,-0.065,-0.0666,-0.0623,-0.0607,-0.0555,-0.0474,-0.0423,-0.0312,-0.0242,-0.0079,0.0039,0.0148,0.031,0.0311,0.0409,0.0438,0.0398,0.0396,0.0376,0.0371,0.0413,0.0412,0.0412,0.0411,0,-0.0679,-0.0681,-0.0708,-0.0703,-0.07,-0.071,-0.0662,-0.064,-0.056,-0.0486,-0.0459,-0.0298,-0.0137,0.0023,0.0211,0.0307,0.0451,0.0501,0.0436,0.0457,0.0509,0.0501,0.0608,0.061,0.0611,0.0612,0.0613,0,-0.0709,-0.0737,-0.0754,-0.077,-0.0769,-0.0768,-0.0766,-0.0694,-0.0652,-0.0512,-0.048,-0.0314,-0.0174,0.011,0.0302,0.0503,0.0499,0.0575,0.056,0.0515,0.0533,0.0523,0.0513,0.0549,0.055,0.055,0.055,0,-0.0758,-0.0769,-0.0791,-0.0829,-0.0844,-0.0845,-0.0826,-0.0804,-0.0702,-0.0629,-0.0489,-0.037,-0.0092,0.0145,0.0397,0.0501,0.0542,0.0589,0.058,0.0502,0.0467,0.0482,0.0473,0.0553,0.0553,0.0553,0.0553,0.0552,-0.0786,-0.0818,-0.0846,-0.0874,-0.0897,-0.0899,-0.0885,-0.0841,-0.0773,-0.0628,-0.0509,-0.0307,-0.0082,0.0291,0.046,0.0605,0.0607,0.0637,0.0633,0.0629,0.0604,0.0574,0.0674,0.0674,0.0675,0.0675,0.0675,0,-0.0806,-0.084,-0.0878,-0.0915,-0.0939,-0.0933,-0.0904,-0.0861,-0.0777,-0.0631,-0.0477,-0.0219,0.0054,0.0274,0.0519,0.0667,0.0637,0.067,0.0609,0.0605,0.0602,0.0573,0.0637,0.0637,0.0638,0.0638,0,0,-0.0819,-0.0858,-0.0878,-0.0925,-0.095,-0.0947,-0.0922,-0.0851,-0.0735,-0.0587,-0.0431,-0.02,0.0075,0.0243,0.0423,0.0542,0.0526,0.0536,0.0551,0.0453,0.0448,0.0568,0.0518,0,0,0,0,0]}],[{"header":{"parameterUnit":"m.s-1","parameterCategory":2,"la1":30.2991,"la2":30.254,"lo1":-89.0895,"lo2":-89.0444,"dy":0.0017,"dx":0.0017,"nx":28,"ny":28,"refTime":"2023-10-29T03:00:00:Z","depth":"4","parameterNumber":2,"parameterNumberName":"U-component_of_CURRENTS"},"data":[0,0,0,0,0,0,0,0,0,0,0,0,0,0,0,0,0,0,0,0,0,0,0,0,0,0,0,0,0,0,0,0,0,0,0,0,0,0,0,0,0,0,0,0,0,0,0,0,0,0,0,0,0,0,0,0,0,0,-0.1282,-0.1282,0,-0.1254,-0.1254,-0.1253,-0.127,-0.1271,-0.1272,-0.1273,-0.1269,-0.1268,-0.1267,0,0,0,0,0,0,0,0,0,0,0,0,0,-0.1292,-0.1292,-0.1282,-0.1282,-0.1282,-0.1254,-0.1254,-0.1253,-0.127,-0.1271,-0.1272,-0.1274,-0.1269,-0.1268,-0.1267,0,0,0,0,0,0,0,0,0,0,0,0,0,-0.1276,-0.1292,-0.1282,-0.1289,-0.1289,-0.1255,-0.1254,-0.1253,-0.127,-0.1271,-0.1273,-0.1274,-0.127,-0.1268,-0.1267,-0.1227,0,0,-0.1262,-0.1261,0,0,0,0,0,0,0,0,-0.1277,-0.1276,-0.1288,-0.1288,-0.1289,-0.1269,-0.1256,-0.1246,-0.1269,-0.1275,-0.1273,-0.1275,-0.1272,-0.127,-0.1258,-0.1226,-0.1226,-0.1262,-0.1261,-0.126,-0.126,0,0,0,0,0,0,0,-0.1278,-0.1277,-0.1269,-0.1287,-0.1288,-0.1273,-0.1273,-0.1254,-0.1264,-0.1274,-0.1276,-0.1276,-0.1272,-0.1259,-0.1258,-0.1226,-0.1262,-0.126,-0.1259,-0.1259,-0.1296,-0.1298,0,0,0,0,0,0,-0.1288,-0.1278,-0.127,-0.1268,-0.1289,-0.1272,-0.1272,-0.1272,-0.1263,-0.1264,-0.1275,-0.1277,-0.1261,-0.126,-0.1258,-0.1325,-0.126,-0.1259,-0.1258,-0.1294,-0.1296,-0.1298,0,0,0,0,0,0,-0.1288,-0.1287,-0.1271,-0.1274,-0.1272,-0.1271,-0.1271,-0.1271,-0.1292,-0.1264,-0.1265,-0.13,-0.1262,-0.126,-0.1282,-0.1321,-0.1258,-0.1256,-0.1292,-0.1295,-0.1297,-0.1385,0,0,0,0,0,0,-0.1288,-0.1287,-0.1298,-0.1275,-0.1272,-0.1287,-0.127,-0.1269,-0.1288,-0.1292,-0.1285,-0.1284,-0.1263,-0.1284,-0.128,-0.1318,-0.1255,-0.1289,-0.1293,-0.1296,-0.138,-0.1391,-0.14,0,0,0,0,0,-0.1289,-0.1301,-0.1299,-0.1298,-0.1284,-0.1289,-0.1287,-0.1289,-0.1289,-0.131,-0.1308,-0.1286,-0.1305,-0.1284,-0.1279,-0.1317,-0.1288,-0.1292,-0.1296,-0.1376,-0.1389,-0.14,0,0,0,0,0,0,-0.1314,-0.1303,-0.1301,-0.131,-0.1316,-0.1294,-0.1308,-0.1306,-0.1316,-0.1326,-0.13,-0.1299,-0.1333,-0.1313,-0.1291,-0.1341,-0.1297,-0.13,-0.1359,-0.1371,-0.1381,-0.1387,-0.1254,0,0,0,0,0,-0.1322,-0.1333,-0.1321,-0.1335,-0.1338,-0.1327,-0.133,-0.1335,-0.1334,-0.1342,-0.1331,-0.133,-0.1338,-0.1348,-0.1342,-0.1362,-0.1344,-0.1387,-0.1398,-0.1406,-0.141,-0.1416,-0.1426,-0.1313,-0.1313,-0.1313,0,0,-0.1341,-0.1334,-0.1343,-0.1343,-0.1342,-0.1356,-0.1334,-0.1355,-0.1377,-0.1337,-0.1366,-0.136,-0.1351,-0.138,-0.1395,-0.1374,-0.1433,-0.1412,-0.1419,-0.1418,-0.1421,-0.1432,-0.1442,-0.1316,-0.1315,-0.1315,0,0,-0.1372,-0.1373,-0.1389,-0.1401,-0.1409,-0.1398,-0.1414,-0.1408,-0.142,-0.1445,-0.1427,-0.1444,-0.145,-0.1448,-0.145,-0.151,-0.1483,-0.1523,-0.1582,-0.1588,-0.1597,-0.1605,-0.1609,-0.1617,-0.1533,-0.1533,-0.1533,0,-0.1399,-0.1409,-0.1399,-0.1419,-0.1434,-0.1425,-0.145,-0.1458,-0.1464,-0.1478,-0.1476,-0.1491,-0.1481,-0.1514,-0.1545,-0.1532,-0.1535,-0.1535,-0.16,-0.1607,-0.1614,-0.1616,-0.1623,-0.1538,-0.1537,-0.1537,-0.1536,0,-0.1433,-0.1456,-0.1471,-0.1489,-0.1502,-0.1531,-0.1535,-0.1555,-0.1564,-0.157,-0.161,-0.1592,-0.1605,-0.1612,-0.1602,-0.1649,-0.1637,-0.1608,-0.1567,-0.163,-0.1629,-0.1635,-0.1544,-0.1543,-0.1541,-0.154,0,0,-0.1451,-0.1488,-0.1498,-0.1521,-0.1545,-0.1558,-0.1598,-0.1625,-0.1659,-0.1673,-0.1713,-0.1729,-0.1722,-0.1723,-0.1706,-0.1717,-0.1768,-0.1698,-0.1696,-0.1699,-0.1795,-0.1652,-0.1644,-0.1759,-0.1761,-0.1762,-0.1781,0,-0.1484,-0.1533,-0.1543,-0.16,-0.1619,-0.1637,-0.1677,-0.1707,-0.1726,-0.1762,-0.1763,-0.1791,-0.1765,-0.1778,-0.179,-0.1769,-0.1786,-0.1765,-0.1736,-0.1735,-0.1596,-0.1646,-0.1766,-0.1785,-0.1786,-0.1787,-0.1787,0,-0.1496,-0.1531,-0.1588,-0.1649,-0.1662,-0.1702,-0.1754,-0.179,-0.1838,-0.1859,-0.1884,-0.188,-0.1903,-0.1867,-0.1871,-0.1867,-0.1849,-0.1826,-0.1825,-0.1661,-0.1602,-0.1705,-0.1796,-0.1796,-0.1795,-0.1794,-0.1794,0,-0.1473,-0.1554,-0.16,-0.1626,-0.1695,-0.1735,-0.1774,-0.1824,-0.1843,-0.1914,-0.1927,-0.1964,-0.1958,-0.1961,-0.1907,-0.1911,-0.1895,-0.1884,-0.1737,-0.1728,-0.1811,-0.1802,-0.1891,-0.1891,-0.1891,-0.1891,-0.1891,0,-0.1465,-0.1506,-0.1606,-0.1631,-0.169,-0.1752,-0.1804,-0.1848,-0.1905,-0.1913,-0.1971,-0.1954,-0.1982,-0.1961,-0.194,-0.1839,-0.1917,-0.1752,-0.1721,-0.185,-0.1846,-0.1815,-0.1806,-0.1892,-0.1892,-0.1892,-0.1891,0,-0.139,-0.1468,-0.152,-0.1632,-0.1666,-0.1703,-0.178,-0.1805,-0.1889,-0.1895,-0.1914,-0.1952,-0.1925,-0.1921,-0.1904,-0.1838,-0.1784,-0.1728,-0.1869,-0.1845,-0.1619,-0.1615,-0.1597,-0.1592,-0.1587,-0.1584,-0.1581,0,-0.134,-0.1367,-0.1486,-0.1512,-0.1559,-0.163,-0.1657,-0.1763,-0.1775,-0.1851,-0.183,-0.1847,-0.1847,-0.1707,-0.1741,-0.1698,-0.1663,-0.1647,-0.164,-0.1616,-0.1589,-0.1591,-0.1592,-0.1574,-0.1573,-0.1572,-0.1571,0,-0.1235,-0.1295,-0.1336,-0.1392,-0.1439,-0.1477,-0.1538,-0.1535,-0.1638,-0.1731,-0.168,-0.1659,-0.1619,-0.16,-0.1563,-0.1533,-0.1673,-0.1604,-0.1613,-0.1606,-0.1589,-0.1567,-0.1573,-0.1557,-0.1559,-0.156,-0.1561,0,-0.1139,-0.1139,-0.1207,-0.1238,-0.1296,-0.1305,-0.136,-0.1376,-0.1408,-0.1515,-0.1487,-0.1517,-0.1578,-0.151,-0.1479,-0.1437,-0.1425,-0.139,-0.141,-0.1427,-0.136,-0.1312,-0.1171,0,0,0,0,0,-0.1036,-0.1025,-0.1044,-0.1078,-0.1134,-0.1169,-0.1262,-0.1327,-0.1435,-0.1348,-0.1418,-0.1374,-0.1331,-0.1357,-0.1276,-0.1415,-0.1438,-0.1319,-0.1411,-0.1476,-0.1493,-0.1429,0,0,0,0,0,0,-0.0966,-0.0979,-0.099,-0.094,-0.0934,-0.0977,-0.1032,-0.1116,-0.1088,-0.1204,-0.118,-0.1276,-0.1249,-0.1331,-0.1234,-0.1245,-0.1273,-0.1357,-0.1353,-0.1467,-0.1482,-0.1496,-0.1435,0,0,0,0,0]},{"header":{"parameterUnit":"m.s-1","parameterCategory":2,"la1":30.2991,"la2":30.254,"lo1":-89.0895,"lo2":-89.0444,"dy":0.0017,"dx":0.0017,"nx":28,"ny":28,"refTime":"2023-10-29T03:00:00:Z","depth":"4","parameterNumber":3,"parameterNumberName":"V-component_of_CURRENTS"},"data":[0,0,0,0,0,0,0,0,0,0,0,0,0,0,0,0,0,0,0,0,0,0,0,0,0,0,0,0,0,0,0,0,0,0,0,0,0,0,0,0,0,0,0,0,0,0,0,0,0,0,0,0,0,0,0,0,0,0,-0.0137,-0.0137,0,-0.0118,-0.0118,-0.0118,-0.0121,-0.0121,-0.0121,-0.0121,-0.0098,-0.0097,-0.0097,0,0,0,0,0,0,0,0,0,0,0,0,0,-0.0156,-0.0156,-0.0137,-0.0137,-0.0136,-0.0118,-0.0118,-0.0118,-0.0121,-0.0121,-0.0121,-0.0121,-0.0098,-0.0098,-0.0097,0,0,0,0,0,0,0,0,0,0,0,0,0,-0.0146,-0.0156,-0.0137,-0.0134,-0.0133,-0.0118,-0.0118,-0.0118,-0.0121,-0.0121,-0.0121,-0.0121,-0.0099,-0.0098,-0.0097,-0.0086,0,0,-0.0093,-0.0093,0,0,0,0,0,0,0,0,-0.0146,-0.0145,-0.0135,-0.0134,-0.0133,-0.012,-0.0116,-0.0106,-0.0121,-0.0128,-0.0121,-0.0121,-0.0103,-0.0102,-0.0101,-0.0085,-0.0084,-0.0093,-0.0092,-0.0092,-0.0092,0,0,0,0,0,0,0,-0.0147,-0.0146,-0.0132,-0.0134,-0.0133,-0.0126,-0.0125,-0.0114,-0.0117,-0.0127,-0.0127,-0.0121,-0.0103,-0.0102,-0.0101,-0.0084,-0.0093,-0.0092,-0.0092,-0.0091,-0.0045,-0.0044,0,0,0,0,0,0,-0.0146,-0.0147,-0.0133,-0.0131,-0.0138,-0.0125,-0.0125,-0.0126,-0.0117,-0.0115,-0.0121,-0.0121,-0.0104,-0.0102,-0.01,-0.0091,-0.0092,-0.0091,-0.009,-0.0046,-0.0045,-0.0044,0,0,0,0,0,0,-0.0146,-0.0145,-0.0133,-0.0136,-0.0134,-0.0125,-0.0126,-0.0125,-0.0128,-0.0112,-0.011,-0.0124,-0.0104,-0.0101,-0.0086,-0.009,-0.0091,-0.009,-0.0046,-0.0045,-0.0045,-0.007,0,0,0,0,0,0,-0.0147,-0.0145,-0.015,-0.0136,-0.0134,-0.0132,-0.0126,-0.0125,-0.0122,-0.0123,-0.0114,-0.0112,-0.0104,-0.0088,-0.0085,-0.0088,-0.0089,-0.0047,-0.0046,-0.0045,-0.007,-0.007,-0.007,0,0,0,0,0,-0.0148,-0.0155,-0.0151,-0.0149,-0.0139,-0.0132,-0.013,-0.0125,-0.0122,-0.0128,-0.0112,-0.0112,-0.0079,-0.0087,-0.0084,-0.0086,-0.0047,-0.0046,-0.0045,-0.0069,-0.007,-0.007,0,0,0,0,0,0,-0.0166,-0.0155,-0.015,-0.0154,-0.0145,-0.0131,-0.0133,-0.0127,-0.012,-0.0121,-0.0106,-0.0102,-0.0091,-0.008,-0.0088,-0.0067,-0.0063,-0.0061,-0.0083,-0.0083,-0.0083,-0.0086,-0.0088,0,0,0,0,0,-0.017,-0.0175,-0.0159,-0.0163,-0.0158,-0.0146,-0.0142,-0.0139,-0.0127,-0.0125,-0.0115,-0.0099,-0.0082,-0.0076,-0.0063,-0.0052,-0.0021,-0.0049,-0.0049,-0.005,-0.0048,0.0007,0.0011,-0.004,-0.004,-0.004,0,0,-0.0177,-0.0172,-0.0174,-0.0167,-0.016,-0.016,-0.0145,-0.0144,-0.0143,-0.0123,-0.012,-0.0102,-0.0078,-0.0067,-0.0061,-0.0059,-0.0019,-0.0048,-0.0049,-0.0047,0.0008,0.0013,0.0018,-0.0039,-0.0039,-0.0039,0,0,-0.0198,-0.0189,-0.0201,-0.0197,-0.0188,-0.0174,-0.0174,-0.0162,-0.0156,-0.0147,-0.0128,-0.0106,-0.0091,-0.0069,-0.0056,-0.0045,-0.0022,-0.0045,-0.0051,0.0002,0.0006,0.0011,0.0052,0.0061,-0.0046,-0.0046,-0.0046,0,-0.0208,-0.0221,-0.0203,-0.0214,-0.021,-0.0182,-0.0191,-0.0179,-0.0164,-0.0152,-0.0151,-0.0102,-0.0089,-0.0055,-0.0057,-0.0047,-0.0016,-0.0057,0.0001,0.0006,0.0011,0.0053,0.0062,-0.0047,-0.0047,-0.0046,-0.0046,0,-0.0239,-0.0248,-0.0253,-0.0255,-0.0247,-0.0251,-0.0225,-0.0215,-0.0199,-0.0182,-0.0148,-0.0117,-0.0086,-0.0078,-0.0069,-0.0027,-0.0016,-0.0007,-0.0002,0.0015,0.0058,0.0068,-0.0048,-0.0048,-0.0048,-0.0047,0,0,-0.027,-0.0275,-0.028,-0.0287,-0.0271,-0.0268,-0.0254,-0.023,-0.0216,-0.019,-0.0164,-0.013,-0.0104,-0.0085,-0.0059,-0.0018,0.0037,-0.0004,-0.0001,0.0031,0.015,0.0119,0.0128,0.0057,0.0059,0.006,0.0165,0,-0.0303,-0.0337,-0.0321,-0.034,-0.035,-0.0313,-0.0306,-0.0278,-0.024,-0.0207,-0.0153,-0.0124,-0.0107,-0.0091,-0.0044,0.0018,0.0063,0.0007,0.0135,0.0139,0.0105,0.0138,0.0065,0.0172,0.0175,0.0177,0.0178,0,-0.0342,-0.0358,-0.039,-0.0386,-0.0385,-0.039,-0.0355,-0.0339,-0.0275,-0.0244,-0.0185,-0.0142,-0.0075,-0.0065,0.0061,0.0025,0.0082,0.0131,0.0137,0.0124,0.0127,0.0156,0.0197,0.0195,0.0194,0.0193,0.0192,0,-0.0385,-0.0402,-0.0429,-0.0432,-0.0424,-0.0426,-0.0412,-0.036,-0.0336,-0.0259,-0.0231,-0.0138,-0.0094,0.0001,0.0093,0.0084,0.0232,0.0235,0.0267,0.0266,0.0272,0.0266,0.0328,0.0328,0.0327,0.0327,0.0327,0,-0.0424,-0.0446,-0.0458,-0.0477,-0.0502,-0.0474,-0.0471,-0.0436,-0.0377,-0.0343,-0.0257,-0.0207,-0.0076,0.0019,0.0105,0.0217,0.0248,0.0275,0.0295,0.0258,0.025,0.0279,0.0272,0.0331,0.033,0.0329,0.0329,0,-0.0461,-0.0474,-0.0508,-0.0521,-0.0527,-0.0544,-0.0522,-0.0509,-0.0447,-0.0394,-0.0373,-0.0248,-0.0122,0.0006,0.0166,0.0223,0.0335,0.0364,0.0313,0.0327,0.0333,0.0323,0.0422,0.0422,0.0422,0.0422,0.0422,0,-0.048,-0.0508,-0.0549,-0.0575,-0.0585,-0.06,-0.0608,-0.0556,-0.0526,-0.0418,-0.0394,-0.0267,-0.0178,0.0038,0.0163,0.0337,0.0348,0.0404,0.0371,0.0335,0.0345,0.0336,0.0327,0.0421,0.0421,0.0421,0.0421,0,-0.0511,-0.0535,-0.0565,-0.0621,-0.0651,-0.0665,-0.0663,-0.0643,-0.0565,-0.0521,-0.0396,-0.0274,-0.0132,0.0033,0.0163,0.0284,0.037,0.0404,0.0404,0.0374,0.0335,0.0343,0.0335,0.0421,0.0421,0.0421,0.0421,0,-0.0534,-0.0567,-0.0612,-0.0653,-0.0698,-0.0708,-0.0701,-0.0651,-0.061,-0.0483,-0.0446,-0.0278,-0.0173,0.0005,0.0128,0.0242,0.0264,0.0289,0.0297,0.0298,0.022,0.015,0.0206,0,0,0,0,0,-0.0545,-0.0582,-0.0631,-0.0681,-0.0724,-0.0738,-0.0725,-0.07,-0.0632,-0.0552,-0.0489,-0.0353,-0.0145,-0.0047,0.0062,0.0108,0.0267,0.0236,0.0295,0.0419,0.0419,0.0344,0,0,0,0,0,0,-0.0557,-0.0609,-0.0633,-0.0688,-0.0721,-0.0756,-0.0745,-0.07,-0.0636,-0.0555,-0.044,-0.0356,-0.0155,-0.0216,0.0052,0.0089,0.0136,0.0341,0.0343,0.0419,0.0419,0.042,0.0342,0,0,0,0,0]}]]